[[{"header":{"parameterUnit":"m.s-1","parameterCategory":1,"la1":30.2991,"la2":30.254,"lo1":-89.0895,"lo2":-89.0444,"dy":0.0017,"dx":0.0017,"nx":28,"ny":28,"refTime":"2025-04-02T09:00:00:Z","depth":0,"parameterNumber":2,"parameterNumberName":"U-component_of_WINDS"},"data":[0,0,0,0,0,0,0,0,0,0,0,0,0,0,0,0,0,0,0,0,0,0,0,0,0,0,0,0,0,0,0,0,0,0,0,0,0,0,0,0,0,0,0,0,0,0,0,0,0,0,0,0,0,0,0,0,0,0,-4.3835,-4.3837,0,-4.3996,-4.3998,-4.4,-4.4038,-4.4037,-4.4036,-4.4035,-4.4197,-4.4202,-4.4207,0,0,0,0,0,0,0,0,0,0,0,0,0,-4.356,-4.3565,-4.3835,-4.3837,-4.3839,-4.3996,-4.3998,-4.4,-4.4038,-4.4037,-4.4035,-4.4034,-4.4195,-4.4201,-4.4208,0,0,0,0,0,0,0,0,0,0,0,0,0,-4.3696,-4.3567,-4.3835,-4.3877,-4.3883,-4.3995,-4.3998,-4.4001,-4.4038,-4.4037,-4.4035,-4.4033,-4.4193,-4.4201,-4.4208,-4.429,0,0,-4.4233,-4.4236,0,0,0,0,0,0,0,0,-4.3688,-4.3706,-4.3869,-4.3874,-4.3881,-4.3995,-4.396,-4.4097,-4.4039,-4.3979,-4.4035,-4.4033,-4.4131,-4.4144,-4.4177,-4.4297,-4.4304,-4.4234,-4.4238,-4.4242,-4.4244,0,0,0,0,0,0,0,-4.3679,-4.3699,-4.3899,-4.3871,-4.3878,-4.3888,-4.3905,-4.3987,-4.4062,-4.3984,-4.3987,-4.4006,-4.4134,-4.417,-4.4181,-4.4307,-4.4233,-4.424,-4.4245,-4.4248,-4.4502,-4.4504,0,0,0,0,0,0,-4.3662,-4.3691,-4.3894,-4.3904,-4.3779,-4.3894,-4.3914,-4.396,-4.4061,-4.4075,-4.4007,-4.4007,-4.4157,-4.4172,-4.4187,-4.4289,-4.4242,-4.4249,-4.4254,-4.45,-4.4503,-4.4505,0,0,0,0,0,0,-4.3656,-4.368,-4.3887,-4.3799,-4.3826,-4.39,-4.3952,-4.3964,-4.4,-4.4079,-4.4092,-4.403,-4.4156,-4.4176,-4.4264,-4.4295,-4.4253,-4.426,-4.4498,-4.4501,-4.4504,-4.4493,0,0,0,0,0,0,-4.3648,-4.3678,-4.3709,-4.3799,-4.383,-4.3962,-4.3954,-4.3968,-4.4014,-4.4015,-4.4104,-4.4117,-4.4156,-4.4252,-4.4272,-4.4305,-4.4266,-4.4495,-4.4499,-4.4503,-4.449,-4.4495,-4.4498,0,0,0,0,0,-4.3638,-4.3699,-4.3711,-4.3735,-4.3872,-4.3963,-4.3981,-4.4026,-4.4016,-4.4048,-4.4099,-4.4114,-4.4289,-4.4261,-4.4284,-4.432,-4.4494,-4.4498,-4.4502,-4.4489,-4.4494,-4.4498,0,0,0,0,0,0,-4.361,-4.3712,-4.3726,-4.3817,-4.3882,-4.397,-4.4012,-4.403,-4.4098,-4.4096,-4.4149,-4.4169,-4.4254,-4.4296,-4.4263,-4.4404,-4.4391,-4.44,-4.4373,-4.4378,-4.4382,-4.4369,-4.4273,0,0,0,0,0,-4.3615,-4.3682,-4.3767,-4.3839,-4.3871,-4.3936,-4.3978,-4.4007,-4.4075,-4.4102,-4.416,-4.4225,-4.4295,-4.4339,-4.4408,-4.4498,-4.4517,-4.4534,-4.4538,-4.4541,-4.4547,-4.4598,-4.4606,-4.4519,-4.4519,-4.4519,0,0,-4.3625,-4.3689,-4.3727,-4.3835,-4.3889,-4.3956,-4.3958,-4.4029,-4.408,-4.4113,-4.42,-4.4244,-4.4321,-4.441,-4.4452,-4.4448,-4.4576,-4.4546,-4.4548,-4.4553,-4.4603,-4.4611,-4.4618,-4.4522,-4.4522,-4.4521,0,0,-4.3677,-4.3732,-4.3799,-4.3853,-4.3934,-4.3977,-4.3993,-4.4079,-4.411,-4.4198,-4.4225,-4.4285,-4.4405,-4.4458,-4.4501,-4.4575,-4.4591,-4.4596,-4.4616,-4.4664,-4.4671,-4.4678,-4.4703,-4.4712,-4.4603,-4.4603,-4.4603,0,-4.3678,-4.3781,-4.383,-4.3901,-4.3947,-4.3983,-4.405,-4.41,-4.4199,-4.423,-4.4224,-4.4375,-4.4429,-4.4531,-4.4549,-4.4583,-4.4603,-4.4585,-4.4667,-4.4673,-4.468,-4.4705,-4.4714,-4.4603,-4.4603,-4.4603,-4.4603,0,-4.3779,-4.385,-4.3894,-4.3989,-4.4042,-4.411,-4.4169,-4.4216,-4.4242,-4.4286,-4.4375,-4.4442,-4.4524,-4.4552,-4.4577,-4.4658,-4.4652,-4.4656,-4.4644,-4.4687,-4.4711,-4.4721,-4.4603,-4.4603,-4.4603,-4.4603,0,0,-4.3814,-4.3938,-4.3953,-4.3997,-4.409,-4.4146,-4.4217,-4.4299,-4.4337,-4.4405,-4.4465,-4.4566,-4.4571,-4.4619,-4.4651,-4.4694,-4.4748,-4.4693,-4.4695,-4.4699,-4.484,-4.4835,-4.4846,-4.476,-4.4762,-4.4764,-4.4833,0,-4.3876,-4.4004,-4.4051,-4.4155,-4.4221,-4.4257,-4.4318,-4.4382,-4.4425,-4.4487,-4.4535,-4.4606,-4.4607,-4.4636,-4.4681,-4.4732,-4.4777,-4.4728,-4.4815,-4.4817,-4.4792,-4.4859,-4.4854,-4.4916,-4.4843,-4.4845,-4.4846,0,-4.3965,-4.4035,-4.4146,-4.4231,-4.4261,-4.4315,-4.4394,-4.4454,-4.4527,-4.4556,-4.4611,-4.4641,-4.4716,-4.4701,-4.4804,-4.477,-4.4809,-4.484,-4.4844,-4.4852,-4.4833,-4.4867,-4.4937,-4.4945,-4.4862,-4.4861,-4.486,0,-4.3978,-4.41,-4.4182,-4.4219,-4.4322,-4.4359,-4.4403,-4.4475,-4.4521,-4.4591,-4.4622,-4.4699,-4.474,-4.4799,-4.4849,-4.4834,-4.4948,-4.4938,-4.4973,-4.4972,-4.4993,-4.4991,-4.5069,-4.5022,-4.5022,-4.5021,-4.5021,0,-4.4041,-4.4107,-4.419,-4.424,-4.4315,-4.437,-4.4442,-4.4489,-4.4553,-4.4612,-4.4649,-4.4704,-4.4767,-4.4831,-4.487,-4.495,-4.4969,-4.4993,-4.5003,-4.4989,-4.4985,-4.5013,-4.5009,-4.5024,-4.5023,-4.5023,-4.5022,0,-4.4068,-4.4126,-4.4217,-4.4308,-4.4332,-4.4383,-4.446,-4.451,-4.4556,-4.4631,-4.4652,-4.4724,-4.48,-4.4857,-4.4956,-4.4982,-4.5067,-4.5077,-4.5042,-4.5046,-4.5078,-4.5074,-4.5175,-4.5191,-4.5134,-4.5135,-4.5135,0,-4.4103,-4.4155,-4.4251,-4.4294,-4.4338,-4.4407,-4.4455,-4.4512,-4.456,-4.4648,-4.4687,-4.4767,-4.4833,-4.4954,-4.5015,-4.5091,-4.5102,-4.5133,-4.5114,-4.5098,-4.5101,-4.5096,-4.5101,-4.5134,-4.5135,-4.5135,-4.5135,0,-4.4159,-4.4186,-4.4254,-4.4333,-4.4389,-4.4454,-4.4519,-4.4552,-4.462,-4.4673,-4.4752,-4.4803,-4.4905,-4.4983,-4.5066,-4.5111,-4.5134,-4.5141,-4.5153,-4.5138,-4.5115,-4.5127,-4.5047,-4.5138,-4.5138,-4.5137,-4.5137,-4.5137,-4.419,-4.4238,-4.4313,-4.4388,-4.4443,-4.4504,-4.4555,-4.4608,-4.4676,-4.4763,-4.4793,-4.4875,-4.4948,-4.5061,-4.5107,-4.5172,-4.5171,-4.5189,-4.5193,-4.5196,-4.5194,-4.5107,-4.5188,-4.5188,-4.5188,-4.5188,-4.5188,0,-4.4247,-4.4298,-4.4366,-4.4457,-4.4516,-4.4534,-4.4608,-4.4655,-4.4727,-4.4794,-4.4859,-4.495,-4.5027,-4.5094,-4.5174,-4.5213,-4.5225,-4.5231,-4.5228,-4.5238,-4.5191,-4.5172,-4.522,-4.522,-4.522,-4.522,-4.522,-4.522,-4.4283,-4.4364,-4.44,-4.451,-4.456,-4.4641,-4.4681,-4.4737,-4.4791,-4.4891,-4.4955,-4.5,-4.5067,-4.5152,-4.5223,-4.5241,-4.5267,-4.5271,-4.5291,-4.5245,-4.5241,-4.5237,-4.522,-4.5277,-4.5277,-4.5332,-4.5333,-4.5333]},{"header":{"parameterUnit":"m.s-1","parameterCategory":1,"la1":30.2991,"la2":30.254,"lo1":-89.0895,"lo2":-89.0444,"dy":0.0017,"dx":0.0017,"nx":28,"ny":28,"refTime":"2025-04-02T09:00:00:Z","depth":0,"parameterNumber":3,"parameterNumberName":"V-component_of_WINDS"},"data":[0,0,0,0,0,0,0,0,0,0,0,0,0,0,0,0,0,0,0,0,0,0,0,0,0,0,0,0,0,0,0,0,0,0,0,0,0,0,0,0,0,0,0,0,0,0,0,0,0,0,0,0,0,0,0,0,0,0,4.1607,4.1608,0,4.1708,4.1709,4.171,4.1731,4.173,4.1729,4.1728,4.1831,4.1834,4.1838,0,0,0,0,0,0,0,0,0,0,0,0,0,4.1433,4.1436,4.1606,4.1608,4.1609,4.1708,4.1709,4.171,4.1731,4.173,4.1729,4.1728,4.183,4.1834,4.1838,0,0,0,0,0,0,0,0,0,0,0,0,0,4.1518,4.1437,4.1606,4.1631,4.1634,4.1707,4.1709,4.1711,4.1731,4.173,4.1729,4.1728,4.1828,4.1833,4.1839,4.1893,0,0,4.1854,4.1857,0,0,0,0,0,0,0,0,4.1513,4.1525,4.1626,4.163,4.1633,4.1705,4.1685,4.1772,4.1731,4.1694,4.1728,4.1727,4.179,4.1798,4.182,4.1898,4.1902,4.1855,4.1858,4.186,4.1862,0,0,0,0,0,0,0,4.1507,4.152,4.1646,4.1628,4.1632,4.1638,4.1649,4.1702,4.1747,4.1697,4.1699,4.1711,4.1792,4.1815,4.1822,4.1904,4.1855,4.1859,4.1862,4.1864,4.2036,4.2038,0,0,0,0,0,0,4.1497,4.1515,4.1643,4.1649,4.1569,4.1642,4.1654,4.1683,4.1747,4.1755,4.1712,4.1712,4.1806,4.1816,4.1826,4.1897,4.186,4.1865,4.1868,4.2035,4.2037,4.2038,0,0,0,0,0,0,4.1493,4.1508,4.1639,4.1583,4.16,4.1646,4.1679,4.1686,4.1709,4.1758,4.1766,4.1727,4.1806,4.1819,4.1877,4.1901,4.1867,4.1872,4.2033,4.2035,4.2038,4.2037,0,0,0,0,0,0,4.1488,4.1507,4.1527,4.1583,4.1603,4.1688,4.168,4.1689,4.1718,4.1719,4.1774,4.1782,4.1806,4.187,4.1883,4.1907,4.1876,4.2031,4.2034,4.2037,4.2036,4.2039,4.2043,0,0,0,0,0,4.1482,4.1522,4.1528,4.1544,4.163,4.169,4.1701,4.1728,4.172,4.1742,4.1774,4.178,4.1896,4.1875,4.189,4.1917,4.203,4.2033,4.2037,4.2034,4.2039,4.2043,0,0,0,0,0,0,4.1467,4.153,4.1537,4.1597,4.1638,4.1693,4.1721,4.1732,4.1775,4.1774,4.1805,4.1818,4.1875,4.1902,4.1878,4.1975,4.1963,4.1969,4.1956,4.196,4.1964,4.1957,4.188,0,0,0,0,0,4.1471,4.1514,4.1567,4.1614,4.1635,4.1674,4.1701,4.1719,4.1763,4.178,4.1816,4.1858,4.1904,4.1933,4.1978,4.204,4.2053,4.2065,4.2069,4.2071,4.2077,4.2114,4.2121,4.2049,4.2049,4.2049,0,0,4.1478,4.1518,4.1543,4.1612,4.1646,4.1691,4.1689,4.1735,4.177,4.1787,4.1845,4.1873,4.1922,4.1983,4.2012,4.2007,4.21,4.2076,4.2077,4.2082,4.2119,4.2125,4.2131,4.2051,4.2051,4.2051,0,0,4.1516,4.155,4.1595,4.163,4.1681,4.1708,4.1719,4.1774,4.1793,4.1853,4.1868,4.1909,4.1986,4.2022,4.205,4.2105,4.2114,4.2119,4.2137,4.2174,4.2179,4.2185,4.2207,4.2214,4.2124,4.2124,4.2124,0,4.152,4.1588,4.1616,4.1664,4.1695,4.1714,4.1761,4.1793,4.1856,4.1878,4.1871,4.1972,4.2006,4.2078,4.2091,4.2113,4.2128,4.2113,4.2176,4.2182,4.2187,4.2208,4.2216,4.2124,4.2124,4.2124,4.2124,0,4.1591,4.1638,4.1668,4.1731,4.1765,4.1812,4.1849,4.188,4.1895,4.1923,4.1985,4.2027,4.2082,4.21,4.2115,4.2175,4.2171,4.217,4.2158,4.2194,4.2215,4.2223,4.2125,4.2125,4.2125,4.2124,0,0,4.162,4.1701,4.1711,4.1742,4.1802,4.1839,4.1888,4.1943,4.197,4.2014,4.2057,4.2124,4.2125,4.2157,4.2176,4.2208,4.2252,4.2204,4.2205,4.2213,4.2324,4.2325,4.2334,4.2258,4.226,4.2261,4.232,0,4.1667,4.1755,4.1784,4.1857,4.1903,4.1923,4.1966,4.2008,4.2036,4.2079,4.2109,4.2158,4.2154,4.2174,4.2206,4.224,4.2275,4.2236,4.23,4.2302,4.2288,4.2344,4.2345,4.2399,4.2328,4.233,4.2331,0,4.1733,4.178,4.1858,4.1916,4.1936,4.1974,4.2028,4.2069,4.2118,4.2136,4.2174,4.2191,4.2244,4.2229,4.2304,4.2277,4.2305,4.2326,4.2329,4.2336,4.2319,4.2355,4.2416,4.2425,4.2343,4.2342,4.2341,0,4.175,4.1832,4.1891,4.1916,4.1983,4.201,4.2039,4.2087,4.212,4.2168,4.2189,4.2242,4.2271,4.2312,4.2344,4.233,4.2417,4.2404,4.2435,4.2435,4.2453,4.2452,4.2521,4.2468,4.2468,4.2468,4.2468,0,4.18,4.1848,4.19,4.1936,4.1991,4.2024,4.2077,4.2108,4.2151,4.2194,4.2214,4.2255,4.2294,4.2339,4.2365,4.2424,4.2437,4.2454,4.246,4.2453,4.2451,4.2473,4.247,4.247,4.247,4.2469,4.2469,0,4.1828,4.1865,4.193,4.199,4.2006,4.2044,4.2096,4.2132,4.2162,4.2217,4.2231,4.2278,4.2333,4.2369,4.2439,4.2456,4.2522,4.2526,4.2506,4.2509,4.2539,4.2537,4.2626,4.264,4.2576,4.2577,4.2577,0,4.1858,4.1896,4.1961,4.1992,4.2022,4.207,4.2105,4.2139,4.2174,4.2235,4.2264,4.2321,4.2369,4.2456,4.2497,4.2551,4.2558,4.2586,4.2566,4.2559,4.2561,4.2559,4.2564,4.2589,4.2589,4.259,4.259,0,4.1909,4.1926,4.1974,4.203,4.207,4.2115,4.2161,4.2185,4.2228,4.2266,4.2324,4.236,4.2433,4.249,4.2549,4.258,4.2593,4.2596,4.2607,4.26,4.2588,4.2598,4.2516,4.2594,4.2594,4.2593,4.2593,4.2593,4.1941,4.1976,4.2028,4.2082,4.2121,4.2163,4.2202,4.2237,4.2286,4.2348,4.2366,4.2427,4.2477,4.2558,4.259,4.2639,4.2636,4.265,4.2654,4.2658,4.2659,4.2579,4.2649,4.2649,4.2649,4.2649,4.2649,0,4.1995,4.203,4.2079,4.2143,4.2186,4.2195,4.2247,4.2282,4.2336,4.2382,4.2429,4.2497,4.2553,4.2599,4.2657,4.2687,4.2695,4.2702,4.27,4.2708,4.2658,4.2644,4.2695,4.2695,4.2695,4.2695,4.2695,4.2695,4.2028,4.209,4.2113,4.2195,4.223,4.229,4.2319,4.2359,4.2397,4.2472,4.2519,4.2549,4.2596,4.2658,4.2711,4.2723,4.2744,4.275,4.2764,4.2716,4.2711,4.2706,4.2694,4.2754,4.2754,4.281,4.2811,4.2811]}]]